{"data":{"norad_id":61019,"epoch":"2026-05-25T03:58:31.768608Z","epoch_age_seconds":50813,"freshness":"FRESH","line1":"1 61019U 24159J   26145.16564547  .00001303  00000+0  18104-3 0  9997","line2":"2 61019  49.9965 189.4759 0022642 330.6712  29.2954 14.84155695 93351","mean_motion":14.84155695,"eccentricity":0.0022642,"inclination_deg":49.9965,"raan_deg":189.4759,"arg_perigee_deg":330.6712,"mean_anomaly_deg":29.2954,"bstar":0.00018104,"rev_number":9335,"period_min":97.024860993442,"perigee_km":600.40058053535,"apogee_km":632.07390485597,"semimajor_km":6994.3742426957,"source":"CELESTRAK","updated_at":"2026-05-25T13:38:02.278307Z"}}